TimeEST,TemperatureF,Dew PointF,Humidity,Sea Level PressureIn,VisibilityMPH,Wind Direction,Wind SpeedMPH,Gust SpeedMPH,PrecipitationIn,Events,Conditions,WindDirDegrees,DateUTC
12:53 AM,33.1,26.1,75,30.06,10.0,Calm,Calm,-,N/A,,Clear,0,2013-01-21 05:53:00
1:53 AM,30.0,26.1,85,30.07,10.0,SSW,3.5,-,N/A,,Clear,210,2013-01-21 06:53:00
2:53 AM,28.9,25.0,85,30.08,10.0,Calm,Calm,-,N/A,,Clear,0,2013-01-21 07:53:00
4:53 AM,27.0,24.1,89,30.06,6.0,SW,3.5,-,N/A,,Clear,220,2013-01-21 09:53:00
5:53 AM,27.0,23.0,85,30.06,5.0,Calm,Calm,-,N/A,,Clear,0,2013-01-21 10:53:00
6:53 AM,26.1,21.9,84,30.06,6.0,SW,4.6,-,N/A,,Clear,220,2013-01-21 11:53:00
7:53 AM,27.0,23.0,85,30.06,7.0,Calm,Calm,-,N/A,,Clear,0,2013-01-21 12:53:00
8:53 AM,32.0,28.0,85,30.06,9.0,Calm,Calm,-,N/A,,Clear,0,2013-01-21 13:53:00
9:53 AM,39.9,30.9,70,30.06,10.0,Calm,Calm,-,N/A,,Clear,0,2013-01-21 14:53:00
10:53 AM,46.9,28.0,48,30.05,10.0,Calm,Calm,-,N/A,,Clear,0,2013-01-21 15:53:00
11:53 AM,50.0,26.1,39,30.00,10.0,Variable,4.6,-,N/A,,Clear,0,2013-01-21 16:53:00
12:53 PM,54.0,26.1,34,29.95,10.0,SW,8.1,-,N/A,,Clear,220,2013-01-21 17:53:00
1:53 PM,57.0,28.9,34,29.89,10.0,WSW,18.4,21.9,N/A,,Clear,250,2013-01-21 18:53:00
2:53 PM,59.0,27.0,29,29.87,10.0,WSW,16.1,24.2,N/A,,Clear,240,2013-01-21 19:53:00
3:53 PM,57.9,27.0,31,29.86,10.0,West,15.0,25.3,N/A,,Clear,260,2013-01-21 20:53:00
4:53 PM,55.9,25.0,30,29.85,10.0,WNW,13.8,19.6,N/A,,Clear,290,2013-01-21 21:53:00
5:53 PM,53.1,21.9,30,29.86,10.0,West,11.5,19.6,N/A,,Clear,270,2013-01-21 22:53:00
6:53 PM,50.0,19.0,29,29.89,10.0,West,15.0,21.9,N/A,,Clear,270,2013-01-21 23:53:00
7:53 PM,46.9,14.0,27,29.92,10.0,West,10.4,-,N/A,,Clear,280,2013-01-22 00:53:00
8:53 PM,44.1,12.9,28,29.93,10.0,West,13.8,24.2,N/A,,Clear,270,2013-01-22 01:53:00
9:53 PM,43.0,10.9,27,29.93,10.0,West,13.8,21.9,N/A,,Clear,280,2013-01-22 02:53:00
10:53 PM,41.0,12.0,31,29.94,10.0,West,10.4,17.3,N/A,,Clear,280,2013-01-22 03:53:00
11:53 PM,39.9,10.9,31,29.95,10.0,WNW,9.2,20.7,N/A,,Clear,290,2013-01-22 04:53:00